Change the Weather History Date:

Tuesday, December 4, 2012

  Actual Average Record
Temperature  
Mean Temperature 80 °F -  
Max Temperature 83 °F 82 °F 87 °F (1997)
Min Temperature 77 °F 74 °F 44 °F (2002)
Cooling Degree Days 15    
Growing Degree Days 30 (Base 50)    
Moisture  
Dew Point 71 °F    
Average Humidity 75    
Maximum Humidity 83    
Minimum Humidity 68    
Precipitation  
Precipitation 0.00 in - - ()
Sea Level Pressure  
Sea Level Pressure 30.02 in    
Wind  
Wind Speed 15 mph ()    
Max Wind Speed 18 mph    
Max Gust Speed -    
Visibility 6.2 miles    
Events      
Averages and records for this station are not official NWS values.
T = Trace of Precipitation, MM = Missing Value Source: Averaged Metar Reports

Daily Weather History Graph

Daily Weather History Graph

Search for Another Location

Airport or City:

Trip Planner

Search our weather history database for the weather conditions in past years. The results will help you decide how hot, cold, wet, or windy it might be!

Date:

Astronomy

Dec. 04, 2012 Rise Set
Actual Time 6:45 AM EST 5:46 PM EST
Civil Twilight 6:21 AM EST 6:10 PM EST
Nautical Twilight 5:54 AM EST 6:37 PM EST
Astronomical Twilight 5:27 AM EST 7:04 PM EST
Moon 11:02 PM EST (12/4) 11:04 AM EST (12/4)
Length of Visible Light 11h 49m
Length of Day
11h 01m
Waning Gibbous, 69% of the Moon is Illuminated
Dec 4
Waning Gibbous
Dec 6
Last Quarter
Dec 13
New
Dec 20
First Quarter
Dec 28
Full

Hourly Weather History & Observations

Time (EST) Temp. Heat Index Dew Point Humidity Pressure Visibility Wind Dir Wind Speed Gust Speed Precip Events Conditions
6:00 AM 77.0 °F - 69.8 °F 78% 30.01 in 6.2 mi ENE 17.3 mph - N/A   Partly Cloudy
7:00 AM 77 °F - 70 °F 73% 30.03 in 6 mi ENE 18.4 mph - -  
7:00 AM 77.0 °F - 69.8 °F 78% 30.01 in 6.2 mi ENE 18.4 mph - N/A   Partly Cloudy
8:00 AM 78.8 °F - 69.8 °F 74% 30.04 in 6.2 mi ENE 17.3 mph - N/A   Partly Cloudy
9:00 AM 80.6 °F 84.6 °F 71.6 °F 74% 30.06 in 6.2 mi ENE 18.4 mph - N/A   Partly Cloudy
10:00 AM 80.6 °F 84.6 °F 71.6 °F 74% 30.06 in 6.2 mi ENE 17.3 mph - N/A   Partly Cloudy
11:00 AM 80.6 °F 84.6 °F 71.6 °F 74% 30.06 in 6.2 mi ENE 18.4 mph - N/A   Scattered Clouds
12:00 PM 82.4 °F 87.2 °F 71.6 °F 70% 30.06 in 6.2 mi ENE 18.4 mph - N/A   Scattered Clouds
1:00 PM 81 °F - 72 °F 68% 30.04 in 6 mi ENE 17.3 mph - -  
1:00 PM 80.6 °F 84.6 °F 71.6 °F 74% 30.04 in 6.2 mi ENE 17.3 mph - N/A   Scattered Clouds
2:00 PM 82.4 °F 87.2 °F 71.6 °F 70% 29.98 in 6.2 mi ENE 18.4 mph - N/A   Partly Cloudy
3:00 PM 82.4 °F 87.2 °F 71.6 °F 70% 29.98 in 6.2 mi ENE 17.3 mph - N/A   Scattered Clouds
4:00 PM 80.6 °F 84.6 °F 71.6 °F 74% 29.98 in 6.2 mi ENE 17.3 mph - N/A   Scattered Clouds
5:00 PM 80.6 °F 84.6 °F 71.6 °F 74% 29.98 in 6.2 mi ENE 16.1 mph - N/A   Scattered Clouds
6:00 PM 78.8 °F - 71.6 °F 78% 30.01 in 6.2 mi ENE 13.8 mph - N/A   Partly Cloudy
7:00 PM 78 °F - 72 °F 77% 30.01 in 6 mi ENE 13.8 mph - -   Scattered Clouds
7:00 PM 78.8 °F - 71.6 °F 78% 30.01 in 6.2 mi ENE 13.8 mph - N/A   Partly Cloudy
8:00 PM 78.8 °F - 71.6 °F 78% 30.04 in 6.2 mi ENE 12.7 mph - N/A   Partly Cloudy
9:00 PM 77.0 °F - 71.6 °F 83% 30.04 in 6.2 mi ENE 10.4 mph - N/A   Partly Cloudy
10:00 PM 77.0 °F - 71.6 °F 83% 30.04 in 6.2 mi East 8.1 mph - N/A   Partly Cloudy